#timestamp,LO_Frequency,Hit,StdDev 
1459591215.6,286047008.8,Y
1459591235.4,286047000.9,P
1459591255.2,286046999.3,N
1459591275.1,286046995.0,N
1459591276.0,286046995.0,N
1459591295.8,286046998.0,N
1459591315.6,286046999.0,N
1459591335.5,286047001.4,N
1459591355.3,286047003.7,N
1459591375.1,286046999.7,N
1459591395.9,286047001.1,N
1459591415.7,286046998.9,N
1459591435.5,286046999.4,N
1459591455.4,286046999.4,N
1459591475.2,286046998.8,N
1459591495.0,286046996.2,N
1459591495.9,286046996.2,N
1459591515.8,286046993.2,N
1459591535.6,286046989.0,Y
1459591555.4,286046989.6,P
1459591575.3,286046992.8,N
1459591595.1,286046995.3,N
1459591596.0,286046995.3,N
1459591615.8,286047001.4,N
1459591635.7,286047000.4,N
1459591655.5,286046999.5,N
1459591675.3,286046998.3,N
1459591695.1,286047000.9,N
1459591715.9,286047000.2,N
1459591735.7,286047000.1,N
1459591755.5,286047000.0,N
1459591775.4,286046995.7,N
1459591795.2,286046996.2,N
1459591815.0,286046995.1,N
1459591815.9,286046995.1,N
1459591835.8,286047001.0,N
1459591855.6,286046998.7,N
1459591875.4,286047002.7,N
1459591895.3,286047001.2,N
1459591915.1,286047000.0,N
1459591916.0,286047000.0,N
1459591935.8,286047000.2,N
1459591955.7,286047000.4,N
1459591975.5,286046996.5,N
1459591995.3,286047001.1,N
1459592015.1,286046998.1,N
1459592035.9,286046997.8,N
1459592055.7,286046993.8,N
1459592075.5,286046997.4,N
1459592095.4,286046996.1,N
1459592115.2,286046994.3,N
1459592135.0,286046995.6,N
1459592135.9,286046995.6,N
1459592155.8,286046991.7,Y
1459592175.6,286046993.4,P
1459592195.4,286046994.1,N
1459592215.3,286046996.3,N
1459592235.1,286046993.5,Y
1459592255.8,286046998.6,P
1459592275.7,286046998.2,N
1459592295.5,286046995.3,P
1459592315.3,286046991.9,Y
1459592335.2,286046998.1,P
1459592355.0,286047001.8,N
1459592355.9,286047001.8,N
1459592375.7,286047000.1,N
1459592395.6,286047001.8,N
1459592415.4,286047002.8,N
1459592435.2,286046999.1,N
1459592455.1,286046998.8,N
1459592456.0,286046998.8,N
1459592475.8,286047001.8,N
1459592495.6,286047003.2,N
1459592515.5,286047004.0,N
1459592535.3,286047004.0,N
1459592555.1,286047001.6,N
1459592575.9,286047002.2,N
1459592595.7,286047000.8,N
1459592615.5,286046998.2,N
1459592635.4,286046997.3,N
1459592655.2,286046998.0,N
1459592675.0,286046996.2,N
1459592675.9,286046996.2,N
1459592695.7,286046995.3,N
1459592715.6,286046995.0,N
1459592735.4,286046995.4,N
1459592755.2,286046994.0,N
1459592775.1,286046995.4,N
1459592776.0,286046995.4,N
1459592795.8,286046993.4,N
1459592815.6,286046999.1,N
1459592835.5,286046997.9,N
1459592855.3,286046997.4,N
1459592875.1,286046996.7,N
1459592895.9,286047000.9,N
1459592915.7,286047000.7,N
1459592935.5,286047000.5,N
1459592955.4,286047001.8,N
1459592975.2,286047002.0,N
1459592995.0,286047002.5,N
1459592995.9,286047002.5,N
1459593015.8,286047001.5,N
1459593035.6,286047001.8,N
1459593055.4,286047000.5,N
1459593075.2,286046999.3,N
1459593095.1,286046996.6,N
1459593096.0,286046996.6,N
1459593115.8,286046999.3,N
1459593135.6,286047000.9,N
1459593155.5,286047002.0,N
1459593175.3,286047001.6,N
1459593195.1,286047003.8,N
1459593215.9,286047005.5,N
1459593235.7,286047003.1,N
1459593255.5,286047003.5,N
1459593275.4,286047005.7,N
1459593295.2,286047009.1,N
1459593315.0,286047008.5,N
1459593315.9,286047008.5,N
1459593335.8,286047006.5,N
1459593355.6,286047006.9,N
1459593375.4,286047003.0,N
1459593395.3,286047001.5,N
1459593415.1,286047002.0,N
1459593416.0,286047002.0,N
1459593435.8,286047003.8,N
1459593455.7,286047002.9,N
1459593475.5,286047006.8,N
1459593495.3,286047008.4,N
1459593515.1,286047008.8,N
1459593535.9,286047005.9,N
1459593555.7,286047005.6,N
1459593575.5,286047005.8,N
1459593595.4,286047005.7,N
1459593615.2,286047006.9,N
1459593635.0,286047006.3,N
1459593635.9,286047006.3,N
1459593655.8,286047007.0,N
1459593675.6,286047006.6,N
1459593695.4,286047010.4,Y
1459593715.3,286047003.4,P
1459593735.1,286047003.7,P
1459593755.8,286047003.5,P
1459593775.7,286047001.9,N
1459593795.5,286046996.5,Y
1459593815.3,286046997.5,P
1459593835.2,286046997.0,N
1459593855.9,286046992.3,N
1459593875.7,286046989.0,N
1459593895.6,286046990.6,N
1459593915.4,286046993.6,N
1459593935.2,286046994.1,N
1459593955.1,286046995.5,N
1459593956.0,286046995.5,N
1459593975.8,286046999.2,N
1459593995.6,286046999.8,N
1459594015.4,286047002.7,N
1459594035.3,286047002.9,N
1459594055.1,286047003.1,N
1459594075.8,286047001.7,N
1459594095.7,286047000.6,N
1459594115.5,286047000.6,N
1459594135.3,286047001.2,N
1459594155.2,286047002.4,N
1459594175.9,286047001.8,N
1459594195.7,286047002.5,N
1459594215.6,286047003.6,N
1459594235.4,286047006.0,N
1459594255.2,286047001.3,N
1459594275.1,286047002.4,N
1459594276.0,286047002.4,N
1459594295.8,286047004.1,N
1459594315.6,286047001.8,N
1459594335.4,286047001.6,N
1459594355.3,286047000.1,N
1459594375.1,286046996.7,N
1459594395.8,286046998.2,N
1459594415.7,286047000.4,N
1459594435.5,286047002.5,N
1459594455.3,286046999.0,N
1459594475.2,286047004.2,N
1459594495.9,286047004.0,N
1459594515.7,286047003.2,N
1459594535.6,286047001.7,N
1459594555.4,286046998.4,N
1459594575.2,286046994.9,N
1459594595.1,286046991.8,Y
1459594596.0,286046991.8,P
1459594615.8,286046994.2,N
1459594635.6,286046994.8,N
1459594655.5,286046994.0,N
1459594675.3,286046995.3,N
1459594695.1,286046998.1,N
1459594715.9,286046998.8,N
1459594735.7,286047000.4,N
1459594755.5,286047000.0,N
1459594775.3,286046999.2,N
1459594795.2,286047000.6,N
